TimePDT,TemperatureF,Dew PointF,Humidity,Sea Level PressureIn,VisibilityMPH,Wind Direction,Wind SpeedMPH,Gust SpeedMPH,PrecipitationIn,Events,Conditions,WindDirDegrees,DateUTC
1:35 AM,59.7,38.1,45,29.70,10.0,WSW,23.0,36.8,N/A,Rain,Light Rain,240,2013-09-29 08:35:00
1:55 AM,59.4,38.3,46,29.71,10.0,WSW,10.4,21.9,N/A,,Overcast,250,2013-09-29 08:55:00
2:15 AM,57.2,41.5,56,29.72,7.0,WSW,16.1,24.2,N/A,,Light Drizzle,240,2013-09-29 09:15:00
2:35 AM,56.3,42.6,60,29.74,7.0,WSW,16.1,19.6,N/A,,Drizzle,250,2013-09-29 09:35:00
2:55 AM,53.4,45.1,74,29.75,7.0,West,19.6,24.2,N/A,,Drizzle,280,2013-09-29 09:55:00
3:15 AM,46.8,44.2,91,29.76,7.0,West,19.6,26.5,N/A,,Drizzle,260,2013-09-29 10:15:00
3:35 AM,45.5,43.3,92,29.79,7.0,West,16.1,20.7,N/A,,Drizzle,260,2013-09-29 10:35:00
3:55 AM,45.0,43.0,93,29.80,10.0,West,15.0,23.0,0.01,Rain,Rain,260,2013-09-29 10:55:00
4:15 AM,44.6,42.8,93,29.80,10.0,WSW,6.9,-,N/A,,Light Drizzle,240,2013-09-29 11:15:00
4:35 AM,44.6,42.6,93,29.82,10.0,West,9.2,-,N/A,Rain,Rain,270,2013-09-29 11:35:00
4:55 AM,44.2,42.8,95,29.83,10.0,WSW,9.2,-,0.01,Rain,Light Rain,240,2013-09-29 11:55:00
5:15 AM,44.2,42.3,93,29.83,10.0,SW,9.2,-,N/A,Rain,Rain,220,2013-09-29 12:15:00
5:35 AM,44.6,41.9,90,29.81,10.0,ESE,3.5,-,0.01,,Light Drizzle,120,2013-09-29 12:35:00
5:55 AM,45.5,41.2,85,29.81,10.0,NNE,4.6,-,0.02,,Light Drizzle,20,2013-09-29 12:55:00
6:15 AM,46.0,39.6,78,29.80,10.0,WSW,3.5,-,N/A,,Overcast,250,2013-09-29 13:15:00
6:35 AM,46.6,39.2,75,29.81,10.0,SSW,16.1,21.9,N/A,,Overcast,210,2013-09-29 13:35:00
6:55 AM,46.6,38.5,73,29.81,10.0,SW,17.3,27.6,0.01,,Overcast,220,2013-09-29 13:55:00
7:15 AM,46.4,39.2,76,29.80,10.0,SSW,16.1,19.6,N/A,Rain,Light Rain,200,2013-09-29 14:15:00
7:35 AM,45.5,38.8,78,29.80,10.0,SSW,17.3,27.6,N/A,Rain,Rain,200,2013-09-29 14:35:00
7:55 AM,45.1,39.2,80,29.80,10.0,South,23.0,28.8,0.01,Rain,Rain,190,2013-09-29 14:55:00
8:15 AM,45.5,39.4,79,29.81,10.0,SW,16.1,28.8,N/A,Rain,Rain,220,2013-09-29 15:15:00
8:35 AM,45.5,39.9,81,29.82,10.0,SW,16.1,23.0,N/A,Rain,Rain,220,2013-09-29 15:35:00
8:55 AM,44.6,39.7,83,29.81,10.0,SSW,13.8,-,0.01,Rain,Light Rain,200,2013-09-29 15:55:00
9:15 AM,44.2,39.6,84,29.82,10.0,South,11.5,-,N/A,Rain,Light Rain,190,2013-09-29 16:15:00
9:35 AM,44.2,39.2,82,29.82,10.0,South,17.3,21.9,0.01,Rain,Rain,190,2013-09-29 16:35:00
9:55 AM,44.6,39.6,82,29.82,10.0,SSW,18.4,23.0,0.01,Rain,Light Rain,200,2013-09-29 16:55:00
10:15 AM,44.4,39.9,84,29.84,10.0,SSW,13.8,-,0.01,Rain,Light Rain,200,2013-09-29 17:15:00
10:35 AM,44.2,40.3,86,29.84,10.0,SSW,11.5,-,0.01,Rain,Light Rain,200,2013-09-29 17:35:00
10:55 AM,45.0,39.9,82,29.84,10.0,SW,10.4,16.1,0.02,Rain,Light Rain,220,2013-09-29 17:55:00
11:15 AM,44.8,39.6,82,29.84,10.0,SW,16.1,-,N/A,Rain,Light Rain,230,2013-09-29 18:15:00
11:35 AM,45.0,39.2,80,29.84,10.0,South,10.4,23.0,0.01,Rain,Light Rain,190,2013-09-29 18:35:00
11:55 AM,44.8,39.4,81,29.84,10.0,South,15.0,-,0.02,Rain,Light Rain,190,2013-09-29 18:55:00
12:15 PM,44.1,39.4,84,29.84,10.0,South,15.0,-,N/A,Rain,Light Rain,180,2013-09-29 19:15:00
12:35 PM,44.1,39.2,83,29.84,10.0,South,12.7,-,0.01,Rain,Rain,180,2013-09-29 19:35:00
12:55 PM,45.0,39.6,81,29.82,10.0,South,13.8,19.6,0.01,,Drizzle,190,2013-09-29 19:55:00
1:15 PM,45.5,39.9,81,29.82,10.0,SSW,8.1,-,0.01,Rain,Rain,210,2013-09-29 20:15:00
1:35 PM,46.8,40.6,79,29.81,10.0,SSW,12.7,23.0,0.01,,Overcast,200,2013-09-29 20:35:00
1:55 PM,48.0,40.5,75,29.81,10.0,South,13.8,23.0,0.02,,Overcast,190,2013-09-29 20:55:00
2:15 PM,48.2,41.0,76,29.81,10.0,SSW,15.0,-,N/A,,Overcast,200,2013-09-29 21:15:00
2:35 PM,48.2,41.0,76,29.80,10.0,SSW,12.7,-,0.01,,Overcast,210,2013-09-29 21:35:00
2:55 PM,48.2,40.8,76,29.80,10.0,South,12.7,20.7,0.01,,Overcast,190,2013-09-29 21:55:00
3:15 PM,48.2,41.5,78,29.79,10.0,South,13.8,18.4,0.01,Rain,Light Rain,190,2013-09-29 22:15:00
3:35 PM,47.8,42.3,81,29.80,10.0,South,10.4,-,0.01,Rain,Light Rain,180,2013-09-29 22:35:00
3:55 PM,48.2,42.1,79,29.80,10.0,South,15.0,-,0.02,Rain,Light Rain,180,2013-09-29 22:55:00
4:15 PM,48.2,42.1,79,29.80,10.0,South,12.7,-,N/A,Rain,Light Rain,180,2013-09-29 23:15:00
4:35 PM,47.5,42.6,83,29.81,10.0,South,11.5,-,0.01,Rain,Light Rain,190,2013-09-29 23:35:00
4:55 PM,47.3,42.6,84,29.80,10.0,South,13.8,-,0.01,Rain,Light Rain,180,2013-09-29 23:55:00
5:15 PM,46.9,42.4,84,29.80,10.0,South,8.1,-,0.01,Rain,Light Rain,190,2013-09-30 00:15:00
5:35 PM,47.3,42.3,83,29.79,10.0,SSE,10.4,-,0.01,Rain,Light Rain,150,2013-09-30 00:35:00
5:55 PM,45.5,43.7,93,29.78,10.0,East,8.1,-,0.02,Rain,Light Rain,90,2013-09-30 00:55:00
6:15 PM,45.5,43.7,93,29.77,10.0,East,12.7,-,N/A,Rain,Light Rain,90,2013-09-30 01:15:00
6:35 PM,45.5,43.9,94,29.76,10.0,East,8.1,-,0.01,Rain,Light Rain,100,2013-09-30 01:35:00
6:55 PM,45.5,43.9,94,29.76,10.0,ESE,9.2,-,0.01,Rain,Light Rain,110,2013-09-30 01:55:00
7:15 PM,45.5,44.1,95,29.75,10.0,East,9.2,-,0.01,Rain,Light Rain,100,2013-09-30 02:15:00
7:35 PM,45.5,44.1,95,29.75,10.0,East,8.1,-,0.01,Rain,Light Rain,100,2013-09-30 02:35:00
7:55 PM,45.5,43.7,93,29.75,10.0,ESE,5.8,-,0.02,Rain,Light Rain,110,2013-09-30 02:55:00
8:15 PM,45.7,43.7,93,29.75,10.0,East,4.6,-,N/A,Rain,Rain,100,2013-09-30 03:15:00
8:35 PM,46.0,43.9,92,29.75,10.0,Calm,Calm,-,0.01,Rain,Rain,0,2013-09-30 03:35:00
8:55 PM,45.7,44.1,94,29.74,7.0,ESE,4.6,-,0.02,Rain,Light Rain,110,2013-09-30 03:55:00
9:15 PM,45.9,44.4,95,29.73,7.0,ENE,6.9,-,N/A,Rain,Light Rain,70,2013-09-30 04:15:00
9:35 PM,46.8,44.8,93,29.72,10.0,East,8.1,-,0.01,Rain,Light Rain,80,2013-09-30 04:35:00
9:55 PM,46.8,45.1,94,29.71,10.0,East,6.9,-,0.01,Rain,Rain,90,2013-09-30 04:55:00
10:15 PM,46.6,45.0,94,29.70,10.0,East,6.9,-,0.01,Rain,Light Rain,90,2013-09-30 05:15:00
10:35 PM,46.8,45.1,94,29.70,10.0,ESE,6.9,-,0.01,Rain,Light Rain,110,2013-09-30 05:35:00
10:55 PM,47.3,45.5,93,29.70,10.0,East,4.6,-,0.02,Rain,Rain,100,2013-09-30 05:55:00
11:15 PM,47.3,45.5,93,29.67,10.0,East,6.9,-,0.01,Rain,Light Rain,90,2013-09-30 06:15:00
11:35 PM,48.4,46.2,92,29.65,10.0,ENE,6.9,-,0.01,,Drizzle,60,2013-09-30 06:35:00
11:55 PM,53.4,47.8,81,29.62,10.0,East,5.8,21.9,0.02,,Drizzle,100,2013-09-30 06:55:00